Volver al catálogo

STARLINK-35179

ActivoComunicacionesVLEO
NORAD 66066·PAYLOAD·🇺🇸 United States

Lanzado Oct 19, 2025 desde Cape Canaveral Space Force Station

Loading…

Próximos Pases (próximas 24 horas)

TLE

ActualizadoSource: CelesTrak SupGP

Época: Sep 14, 2026, 22:55 UTC

1 66066C 25235J   26257.95534722  .00059413  00000+0  17546-2 0  2573
2 66066  53.1595  85.5319 0001147  80.8797  64.4948 15.34374429    15

Sigue STARLINK-35179 en tiempo real con AllMySat

Download on the App Store